Find Starlink 1279

NORAD ID: 45360 Int'l Des: 2020-019 Owner: SPXS Country: US Constellation: starlink operational
LEOCIRCULAR

リアルタイム位置

3D地球を読み込み中...

Starlink 1279について

説明を読み込み中...

次回通過

Passes for default location (London). Set your location on the main map for personalized predictions.

高度履歴

Loading altitude history...

軌道要素

1 45360U 20019A 26123.91668980 .00079065 00000-0 65444-3 0 9994
2 45360 53.0373 188.3553 0008569 354.6460 241.8507 15.69546111 5900
Epoch: May 3, 2026 • Age: 7 hours

現在のステータス

高度 356.4 km
速度 7.70 km/s
衛星直下点 -7.00°S, 109.38°W
打ち上げ日 Mar 18, 2020
運用期間 6.1 years
タイプ internet

技術仕様

分類 Payload
質量 260.00 kg
乾燥質量 248.00 kg
総質量 260.00 kg
長さ 0.20 m
直径 2.80 m
スパン 9.00 m
形状 Box + pan
製造者 SPXS
バスタイプ Starlink
フェーズステータス In Orbit
所有者/国 SPXS/US

Most Searched